TimeCST,TemperatureF,Dew PointF,Humidity,Sea Level PressureIn,VisibilityMPH,Wind Direction,Wind SpeedMPH,Gust SpeedMPH,PrecipitationIn,Events,Conditions,WindDirDegrees,DateUTC
12:56 AM,54.0,50.0,86,30.09,9.0,East,8.1,-,N/A,,Clear,80,2014-03-07 06:56:00
1:56 AM,52.0,48.9,89,30.07,10.0,East,6.9,-,N/A,,Clear,90,2014-03-07 07:56:00
2:56 AM,52.0,48.9,89,30.04,10.0,East,8.1,-,N/A,,Clear,90,2014-03-07 08:56:00
3:56 AM,51.1,48.0,89,30.03,9.0,ESE,8.1,-,N/A,,Clear,110,2014-03-07 09:56:00
4:56 AM,51.1,48.0,89,30.03,10.0,East,6.9,-,N/A,,Clear,80,2014-03-07 10:56:00
5:56 AM,50.0,46.9,89,30.04,10.0,East,5.8,-,N/A,,Clear,100,2014-03-07 11:56:00
6:56 AM,52.0,48.0,86,30.04,10.0,East,5.8,-,N/A,,Partly Cloudy,100,2014-03-07 12:56:00
7:56 AM,57.0,52.0,83,30.06,10.0,East,4.6,-,N/A,,Partly Cloudy,100,2014-03-07 13:56:00
8:56 AM,62.1,53.1,72,30.07,10.0,ESE,9.2,-,N/A,,Partly Cloudy,120,2014-03-07 14:56:00
9:56 AM,64.9,50.0,58,30.06,10.0,SE,13.8,-,N/A,,Scattered Clouds,130,2014-03-07 15:56:00
10:56 AM,66.9,50.0,54,30.06,10.0,SE,10.4,-,N/A,,Partly Cloudy,130,2014-03-07 16:56:00
11:56 AM,68.0,52.0,56,30.04,10.0,ESE,13.8,-,N/A,,Partly Cloudy,120,2014-03-07 17:56:00
12:56 PM,69.1,52.0,54,30.00,10.0,SE,16.1,-,N/A,,Scattered Clouds,130,2014-03-07 18:56:00
1:56 PM,69.1,52.0,54,29.96,10.0,SE,16.1,-,N/A,,Mostly Cloudy,140,2014-03-07 19:56:00
2:56 PM,69.1,52.0,54,29.94,10.0,SE,18.4,-,N/A,,Mostly Cloudy,140,2014-03-07 20:56:00
3:56 PM,69.1,53.1,57,29.93,10.0,SSE,16.1,-,N/A,,Mostly Cloudy,150,2014-03-07 21:56:00
4:56 PM,68.0,54.0,61,29.93,10.0,SSE,16.1,-,N/A,,Mostly Cloudy,160,2014-03-07 22:56:00
5:56 PM,64.9,55.0,70,29.91,10.0,SSE,13.8,-,N/A,,Mostly Cloudy,160,2014-03-07 23:56:00
6:56 PM,63.0,55.9,78,29.91,10.0,SSE,13.8,-,N/A,,Scattered Clouds,160,2014-03-08 00:56:00
7:56 PM,63.0,55.9,78,29.92,10.0,SE,10.4,-,N/A,,Scattered Clouds,140,2014-03-08 01:56:00
8:56 PM,63.0,57.0,81,29.93,10.0,SE,10.4,-,N/A,,Mostly Cloudy,140,2014-03-08 02:56:00
9:56 PM,64.0,57.9,80,29.92,10.0,SE,9.2,-,N/A,,Overcast,140,2014-03-08 03:56:00
10:56 PM,64.0,57.9,80,29.94,10.0,SSE,8.1,-,N/A,,Overcast,150,2014-03-08 04:56:00
11:56 PM,64.9,59.0,81,29.92,10.0,SSE,10.4,-,N/A,,Overcast,150,2014-03-08 05:56:00